リニア彗星

333P/LINEAR (2024)

English version
Home page
Updated on January 10, 2025

---------------------------------------------------------------------

・ プロフィール

・ 写真集

・ 軌道要素

Epoch 2024 Mar. 31.0 TT = JDT 2460400.5
T 2024 Nov. 29.29847 TT                                 Rudenko
q   1.1130376            (2000.0)            P               Q
n   0.11366290     Peri.   26.00951     -0.12525236     +0.73227666
a   4.2207559      Node   115.70166     +0.73020191     -0.38872198
e   0.7362943      Incl.  132.02200     +0.67165246     +0.55916555
P   8.67
>From 696 observations 2007 Nov. 4-2024 Mar. 9, mean residual 0".8.

・ 星図

・ 光度変化

        H = 15.0  G = 0.15                [   ,-55]  (              〜2024年10月 5日)
        m1 =  6.5 + 5 logΔ + 80   log r  [-55,-30]  (2024年10月 5日〜2024年10月30日)
        m1 = 10.7 + 5 logΔ + 25.0 log r  [-30,110]  (2024年10月30日〜2025年 3月19日)
        H = 15.0  G = 0.15                [110,   ]  (2025年 3月19日〜              )

---------------------------------------------------------------------

軌道要素はM.P.E.C. 2024-E157に掲載されたものです。
星図はステラナビゲータ Ver.10 (アストロアーツ) で作成したものです。
光度グラフはComet for Windowsで作成したものです。

---------------------------------------------------------------------

Copyright(C) Seiichi Yoshida (comet@aerith.net). All rights reserved.